Home   Weather   Bad Salzuflen   Past weeks

Flag for Germany Past Weather in Bad Salzuflen, North Rhine-Westphalia, Germany — Yesterday and Last 2 Weeks

Now
28 °F

Passing clouds.


Feels Like: 25 °F
Forecast: 24 / 32 °F
Wind: 3 mph from South

Location: Bueckeburg

Current Time: Jan 18, 2017 at 11:28:08 pm

Latest Report: Jan 18, 2017 at 10:20 pm


Visibility: N/A

Pressure: 30.69 "Hg

Humidity: 86%

Dew Point: 25 °F

Location of Bad SalzuflenLocation

Past Weather in Bad Salzuflen — Graph

°F

Bad Salzuflen Temperature Yesterday

Maximum temperature yesterday: 27 °F (at 12:20 am)
Minimum temperature yesterday: 25 °F (at 4:20 am)
Average temperature yesterday: 26 °F

High & Low Weather Summary for the Past Weeks

 TemperatureHumidityPressure
High43 °F (Jan 4, 4:20 am)100% (Jan 4, 1:20 am)30.77 "Hg (Jan 4, 1:20 am)
Low14 °F (Jan 6, 8:20 am)55% (Jan 5, 2:20 pm)28.91 "Hg (Jan 13, 4:20 am)
Average32 °F87%30.08 "Hg
* Reported Jan 3 9:20 pm — Jan 18 9:20 pm, Bad Salzuflen, Weather by CustomWeather, © 2017

Note: Actual official high and low records may vary slightly from our data, if they occured in-between our weather recording intervals... More about our weather records

Advertising

Bad Salzuflen Weather History for the Previous 24 Hours

Scroll right to see more
 ConditionsComfort  
Time TempWeatherWind HumidityBarometerVisibility
9:20 pm
Wed, Jan 18
28 °FPassing clouds.1 mph86%30.69 "HgN/A
8:20 pm28 °FPassing clouds.2 mph86%30.69 "HgN/A
7:20 pm27 °FPassing clouds.2 mph93%30.69 "HgN/A
6:20 pm28 °FPassing clouds.2 mph86%30.69 "Hg6 mi
5:20 pm28 °FPartly cloudy.2 mph93%30.69 "Hg6 mi
4:20 pm28 °FPartly sunny.1 mph86%30.72 "Hg5 mi
3:20 pm28 °FPartly sunny.2 mph86%30.72 "Hg5 mi
2:20 pm28 °FPartly sunny.2 mph86%30.72 "Hg5 mi
1:20 pm28 °FPartly sunny.2 mph80%30.72 "Hg6 mi
12:20 pm28 °FBroken clouds.2 mph80%30.72 "Hg6 mi
11:33 am27 °FBroken clouds.5 mph80%30.72 "Hg5 mi
10:20 am25 °FBroken clouds.3 mph86%30.74 "Hg4 mi
9:20 am25 °FBroken clouds.6 mph86%30.72 "Hg4 mi
8:20 am25 °FIce fog.7 mph93%30.72 "Hg3 mi
7:20 am25 °FIce fog.3 mph93%30.72 "Hg3 mi
6:53 am23 °FIce fog.3 mph100%30.69 "Hg3 mi
6:20 am23 °FIce fog.3 mph93%30.69 "Hg2 mi
5:20 am23 °FCold.2 mph93%30.69 "Hg3 mi
4:20 am23 °FCold.2 mph100%30.72 "Hg3 mi
3:20 am23 °FCold.2 mph100%30.72 "Hg3 mi
2:20 am27 °FChilly.3 mph93%30.72 "Hg3 mi
1:20 am27 °FChilly.2 mph93%30.69 "Hg3 mi
12:20 am27 °FChilly.5 mph93%30.69 "Hg2 mi
11:20 pm
Tue, Jan 17
27 °FChilly.2 mph93%30.69 "Hg1 mi
Weather by CustomWeather, © 2017

See weather overviewHow to use our weather pages